Weather History for KLAL - June, 2013

Change the Weather History Date:

Monday, June 3, 2013

  Actual Average Record
Temperature  
Mean Temperature 78 °F -  
Max Temperature 84 °F 87 °F 99 °F (1985)
Min Temperature 71 °F 69 °F 64 °F (1988)
Cooling Degree Days 12    
Growing Degree Days 28 (Base 50)    
Moisture  
Dew Point 72 °F    
Average Humidity 91    
Maximum Humidity 100    
Minimum Humidity 66    
Precipitation  
Precipitation 0.00 in - - ()
Sea Level Pressure  
Sea Level Pressure 29.96 in    
Wind  
Wind Speed 3 mph (South)    
Max Wind Speed 13 mph    
Max Gust Speed 21 mph    
Visibility 9 miles    
Events Rain    
Averages and records for this station are not official NWS values.
T = Trace of Precipitation, MM = Missing Value Source: NWS Daily Summary

Daily Weather History Graph

Daily Weather History Graph

Search for Another Location

Airport or City:

Trip Planner

Search our weather history database for the weather conditions in past years. The results will help you decide how hot, cold, wet, or windy it might be!

Date:

Astronomy

Jun. 03, 2013 Rise Set
Actual Time 6:31 AM EDT 8:21 PM EDT
Civil Twilight 6:05 AM EDT 8:47 PM EDT
Nautical Twilight 5:33 AM EDT 9:19 PM EDT
Astronomical Twilight 4:59 AM EDT 9:53 PM EDT
Moon 3:07 AM EDT (6/3) 4:08 PM EDT (6/3)
Length of Visible Light 14h 42m
Length of Day
13h 49m
Waning Crescent, 22% of the Moon is Illuminated
Jun 3
Waning Crescent
Jun 8
New
Jun 16
First Quarter
Jun 23
Full
Jun 30
Last Quarter

Hourly Weather History & Observations

Time (EDT) Temp. Heat Index Dew Point Humidity Pressure Visibility Wind Dir Wind Speed Gust Speed Precip Events Conditions
12:15 AM 73.4 °F - 71.6 °F 94% 29.98 in 10.0 mi SE 3.5 mph - N/A   Scattered Clouds
12:35 AM 73.4 °F - 71.6 °F 94% 29.98 in 10.0 mi ESE 4.6 mph - N/A   Clear
12:55 AM 73.4 °F - 71.6 °F 94% 29.98 in 10.0 mi ESE 4.6 mph - N/A   Scattered Clouds
1:15 AM 73.4 °F - 71.6 °F 94% 29.97 in 10.0 mi SE 3.5 mph - N/A   Scattered Clouds
1:35 AM 73.4 °F - 71.6 °F 94% 29.96 in 10.0 mi Calm Calm - N/A   Scattered Clouds
1:55 AM 73.4 °F - 71.6 °F 94% 29.95 in 10.0 mi Calm Calm - N/A   Clear
2:15 AM 73.4 °F - 71.6 °F 94% 29.95 in 10.0 mi Calm Calm - N/A   Clear
2:35 AM 73.4 °F - 71.6 °F 94% 29.95 in 10.0 mi Calm Calm - N/A   Clear
2:55 AM 71.6 °F - 71.6 °F 100% 29.95 in 10.0 mi ESE 4.6 mph - N/A   Scattered Clouds
3:15 AM 71.6 °F - 71.6 °F 100% 29.94 in 7.0 mi SE 4.6 mph - N/A   Clear
3:35 AM 71.6 °F - 71.6 °F 100% 29.94 in 10.0 mi Calm Calm - N/A   Mostly Cloudy
3:55 AM 73.4 °F - 71.6 °F 94% 29.93 in 7.0 mi ESE 3.5 mph - N/A   Overcast
4:15 AM 73.4 °F - 71.6 °F 94% 29.93 in 7.0 mi Calm Calm - N/A   Scattered Clouds
4:35 AM 71.6 °F - 71.6 °F 100% 29.93 in 7.0 mi Calm Calm - N/A   Scattered Clouds
4:55 AM 71.6 °F - 71.6 °F 100% 29.93 in 7.0 mi Calm Calm - N/A   Scattered Clouds
5:15 AM 71.6 °F - 71.6 °F 100% 29.93 in 7.0 mi Calm Calm - N/A   Clear
5:35 AM 71.6 °F - 71.6 °F 100% 29.94 in 7.0 mi Calm Calm - N/A   Clear
5:50 AM 73.4 °F - 71.6 °F 94% 29.94 in 7.0 mi Calm Calm - N/A   Clear
5:55 AM 71.6 °F - 71.6 °F 100% 29.95 in 7.0 mi Calm Calm - N/A   Clear
6:15 AM 71.6 °F - 71.6 °F 100% 29.95 in 7.0 mi Calm Calm - N/A   Mostly Cloudy
6:25 AM 73.4 °F - 71.6 °F 94% 29.95 in 2.0 mi Calm Calm - N/A   Overcast
6:35 AM 71.6 °F - 71.6 °F 100% 29.95 in 5.0 mi Calm Calm - N/A   Mostly Cloudy
6:48 AM 73.4 °F - 71.6 °F 94% 29.95 in 5.0 mi Calm Calm - N/A   Scattered Clouds
7:50 AM 75.2 °F - 73.4 °F 94% 29.96 in 7.0 mi South 4.6 mph - N/A   Mostly Cloudy
8:10 AM 75.2 °F - 73.4 °F 94% 29.97 in 7.0 mi South 4.6 mph - N/A   Overcast
8:50 AM 77.0 °F - 73.4 °F 89% 29.98 in 7.0 mi South 4.6 mph - N/A   Mostly Cloudy
9:50 AM 80.6 °F 85.4 °F 73.4 °F 79% 29.98 in 7.0 mi South 4.6 mph - N/A   Mostly Cloudy
10:50 AM 82.4 °F 87.2 °F 71.6 °F 70% 29.98 in 8.0 mi South 5.8 mph - N/A   Mostly Cloudy
11:50 AM 82.4 °F 87.2 °F 71.6 °F 70% 29.98 in 10.0 mi South 9.2 mph - N/A   Mostly Cloudy
12:50 PM 82.4 °F 87.2 °F 71.6 °F 70% 29.98 in 10.0 mi SW 11.5 mph - N/A   Overcast
1:50 PM 84.2 °F 89.6 °F 71.6 °F 66% 29.95 in 10.0 mi SW 4.6 mph - N/A   Mostly Cloudy
2:55 PM 78.8 °F - 69.8 °F 74% 29.95 in 10.0 mi SW 12.7 mph 20.7 mph N/A   Overcast
3:57 PM 75.2 °F - 71.6 °F 89% 29.95 in 10.0 mi WSW 6.9 mph - N/A Rain Light Rain
4:56 PM 77.0 °F - 73.4 °F 89% 29.95 in 12.0 mi SSW 4.6 mph - N/A   Overcast
5:54 PM 78.8 °F - 73.4 °F 83% 29.93 in 12.0 mi SSW 9.2 mph - N/A   Overcast
6:51 PM 77.0 °F - 71.6 °F 83% 29.84 in 12.0 mi WSW 5.8 mph - N/A   Overcast
7:53 PM 75.2 °F - 73.4 °F 94% 29.97 in 12.0 mi West 4.6 mph - N/A   Overcast
8:51 PM 75.2 °F - 73.4 °F 94% 29.98 in 10.0 mi SW 4.6 mph - N/A   Overcast
10:55 PM 73.4 °F - 71.6 °F 94% 30.02 in 10.0 mi Calm Calm - N/A   Clear
11:15 PM 73.4 °F - 71.6 °F 94% 30.02 in 10.0 mi Calm Calm - N/A   Mostly Cloudy
11:35 PM 73.4 °F - 71.6 °F 94% 30.03 in 10.0 mi Calm Calm - N/A   Overcast
11:55 PM 73.4 °F - 71.6 °F 94% 30.03 in 10.0 mi Calm Calm - N/A   Overcast